This is the latest recevied weather packets stored in our database for station/object KF0TNT. If no packets are shown the sender has not sent any weather packets the latest 10 day(s).
| Time | Temp. | Humidity | Pressure | Rain* | Wind** | Luminosity | Snow |
|---|---|---|---|---|---|---|---|
| 1777931752 | 16.67° C | 26% | 1011 hPa | 0 mm | - | 116 W/m² | - |
| 1777931449 | 16.67° C | 26% | 1011.2 hPa | 0 mm | - | 113 W/m² | - |
| 1777931145 | 16.67° C | 26% | 1011 hPa | 0 mm | - | 112 W/m² | - |
| 1777930842 | 16.67° C | 25% | 1011.3 hPa | 0 mm | - | 152 W/m² | - |
| 1777930538 | 17.22° C | 25% | 1011.2 hPa | 0 mm | - | 215 W/m² | - |
| 1777930235 | 17.22° C | 25% | 1011.3 hPa | 0 mm | - | 262 W/m² | - |
| 1777929931 | 17.22° C | 25% | 1011 hPa | 0 mm | - | 302 W/m² | - |
| 1777929629 | 17.22° C | 24% | 1011.4 hPa | 0 mm | - | 373 W/m² | - |
| 1777929325 | 17.22° C | 25% | 1011.2 hPa | 0 mm | - | 259 W/m² | - |
| 1777929023 | 17.22° C | 24% | 1011.3 hPa | 0 mm | - | 242 W/m² | - |
| 1777928719 | 17.22° C | 25% | 1011.2 hPa | 0 mm | - | 264 W/m² | - |
| 1777928416 | 16.67° C | 26% | 1011.3 hPa | 0 mm | - | 241 W/m² | - |
| 1777928114 | 16.67° C | 26% | 1011.3 hPa | 0 mm | - | 250 W/m² | - |
| 1777927812 | 16.67° C | 26% | 1011.4 hPa | 0 mm | - | 256 W/m² | - |
| 1777927510 | 16.67° C | 26% | 1011.4 hPa | 0 mm | - | 273 W/m² | - |
| 1777927209 | 17.22° C | 27% | 1011.3 hPa | 0 mm | - | 247 W/m² | - |
| 1777926906 | 17.22° C | 25% | 1011.3 hPa | 0 mm | - | 221 W/m² | - |
| 1777926602 | 17.22° C | 24% | 1011.7 hPa | 0 mm | - | 264 W/m² | - |
| 1777926298 | 17.78° C | 24% | 1011.3 hPa | 0 mm | - | 258 W/m² | - |
| 1777925995 | 17.78° C | 24% | 1011.7 hPa | 0 mm | - | 264 W/m² | - |
| 1777925693 | 18.89° C | 23% | 1011.3 hPa | 0 mm | - | 281 W/m² | - |
| 1777925390 | 19.44° C | 22% | 1011.5 hPa | 0 mm | - | 1000 W/m² | - |
| 1777925087 | 18.89° C | 22% | 1011.4 hPa | 0 mm | - | 1022 W/m² | - |
| 1777924783 | 18.89° C | 22% | 1011.5 hPa | 0 mm | - | 1067 W/m² | - |
| 1777924479 | 18.33° C | 23% | 1011.7 hPa | 0 mm | - | 1025 W/m² | - |
* Rain latest hour (hover to see other rain measurements)
** Current wind speed in m/s (hover to see current wind gust speed)